Overview Statistics Trail Chart Weather Telemetry Raw packets
 

This is the latest recevied weather packets stored in our database for station/object N1JOV-7. If no packets are shown the sender has not sent any weather packets the latest 10 day(s).

<< 34 35 36 37 38 39 40 >>
Time Temp. Humidity Pressure Rain* Wind** Luminosity Snow
1788115861 23.89° C 67% 1016.2 hPa 0 mm - - -
1788115261 23.89° C 67% 1016.3 hPa 0 mm - - -
1788114661 23.89° C 68% 1016.6 hPa 0 mm - - -
1788114061 23.33° C 68% 1016.8 hPa 0 mm - - -
1788113462 23.89° C 68% 1016.7 hPa 0 mm - - -
1788112862 24.44° C 66% 1016.7 hPa 0 mm - - -
1788112262 23.89° C 66% 1016.6 hPa 0 mm - - -
1788111662 24.44° C 66% 1016.7 hPa 0 mm - - -
1788111062 23.89° C 67% 1017.2 hPa 0 mm - - -
1788110461 23.89° C 68% 1017.1 hPa 0 mm - - -
1788109861 23.89° C 65% 1016.9 hPa 0 mm - - -
1788109261 23.89° C 65% 1016.9 hPa 0 mm - - -
1788108661 23.89° C 64% 1016.9 hPa 0 mm - - -
1788108061 23.89° C 65% 1017.1 hPa 0 mm - - -
1788107461 23.89° C 64% 1017 hPa 0 mm - - -
1788106862 24.44° C 64% 1017 hPa 0 mm - - -
1788106262 24.44° C 63% 1017.1 hPa 0 mm - - -
1788105662 24.44° C 62% 1017.2 hPa 0 mm - - -
1788105062 24.44° C 64% 1017.3 hPa 0 mm - - -
1788104462 24.44° C 65% 1017.5 hPa 0 mm - - -
1788103861 24.44° C 67% 1017.4 hPa 0 mm - - -
1788103261 23.89° C 67% 1017.6 hPa 0 mm - - -
1788102661 23.33° C 66% 1017.8 hPa 0 mm - - -
1788102061 23.33° C 65% 1017.9 hPa 0 mm - - -
1788101461 23.33° C 65% 1018.2 hPa 0 mm - - -

* Rain latest hour (hover to see other rain measurements)
** Current wind speed in m/s (hover to see current wind gust speed)